When you browse on this site, cookies collect data to enhance your experience and personalize the content and advertising you see.
Visit our Privacy Policy to learn more. By continuing to use the site, you agree to this use of cookies and data.
  • En España
  • Lista de países
  • Para 7 días
  • Temperatura del agua
  • El tiempo en el mapa
  • Informadores
  • user-avatar
    Iniciar sesión

    Tiempo cada hora Rengo

    Hoy, 27 Enero, Lunes

    Tiempo Temperatura Precipitaciones Viento Presión Humedad
    00:00 +20°C° 0 mm 0 mps 734 mmHg 64%
    01:00 +19°C° 0 mm 0 mps 734 mmHg 64%
    02:00 +19°C° 0 mm 0 mps 734 mmHg 63%
    03:00 +19°C° 0 mm 0 mps 733 mmHg 62%
    04:00 +20°C° 0 mm 1 mps 733 mmHg 61%
    05:00 +22°C° 0 mm 1 mps 733 mmHg 53%
    06:00 +25°C° 0 mm 1 mps 734 mmHg 45%
    07:00 +27°C° 0 mm 1 mps 734 mmHg 36%
    08:00 +30°C° 0 mm 1 mps 734 mmHg 31%
    09:00 +32°C° 0 mm 2 mps 734 mmHg 27%
    10:00 +35°C° 0 mm 3 mps 734 mmHg 22%
    11:00 +37°C° 0 mm 3 mps 734 mmHg 19%
    12:00 +38°C° 0 mm 3 mps 733 mmHg 17%
    13:00 +40°C° 0 mm 4 mps 733 mmHg 14%
    14:00 +40°C° 0 mm 4 mps 733 mmHg 13%
    15:00 +40°C° 0 mm 4 mps 733 mmHg 13%
    16:00 +40°C° 0 mm 5 mps 733 mmHg 12%
    17:00 +35°C° 0 mm 4 mps 733 mmHg 18%
    18:00 +30°C° 0 mm 3 mps 733 mmHg 24%
    19:00 +26°C° 0 mm 1 mps 732 mmHg 29%
    20:00 +25°C° 0 mm 1 mps 732 mmHg 34%
    21:00 +23°C° 0 mm 1 mps 732 mmHg 38%
    22:00 +20°C° 0 mm 0 mps 733 mmHg 42%
    23:00 +19°C° 0 mm 0 mps 732 mmHg 44%

    Mañana, 28 Enero, Martes

    Tiempo Temperatura Precipitaciones Viento Presión Humedad
    00:00 +18°C° 0 mm 0 mps 732 mmHg 47%
    01:00 +18°C° 0 mm 0 mps 732 mmHg 49%
    02:00 +17°C° 0 mm 0 mps 732 mmHg 49%
    03:00 +17°C° 0 mm 0 mps 732 mmHg 50%
    04:00 +17°C° 0 mm 0 mps 732 mmHg 50%
    05:00 +21°C° 0 mm 1 mps 732 mmHg 47%
    06:00 +23°C° 0 mm 1 mps 732 mmHg 44%
    07:00 +24°C° 0 mm 1 mps 732 mmHg 40%
    08:00 +27°C° 0 mm 2 mps 732 mmHg 36%
    09:00 +29°C° 0 mm 2 mps 732 mmHg 33%
    10:00 +32°C° 0 mm 2 mps 732 mmHg 29%
    11:00 +34°C° 0 mm 3 mps 732 mmHg 26%
    12:00 +36°C° 0 mm 3 mps 732 mmHg 23%
    13:00 +37°C° 0 mm 3 mps 732 mmHg 20%
    14:00 +36°C° 0 mm 4 mps 732 mmHg 24%
    15:00 +35°C° 0 mm 5 mps 732 mmHg 28%
    16:00 +34°C° 0 mm 6 mps 732 mmHg 32%
    17:00 +30°C° 0.2 mm 4 mps 732 mmHg 41%
    18:00 +28°C° 0.2 mm 3 mps 732 mmHg 49%
    19:00 +25°C° 0.2 mm 2 mps 732 mmHg 58%
    20:00 +23°C° 0 mm 1 mps 732 mmHg 66%
    21:00 +21°C° 0 mm 1 mps 733 mmHg 74%
    22:00 +20°C° 0 mm 1 mps 733 mmHg 83%
    23:00 +17°C° 0 mm 0 mps 732 mmHg 84%

    Pasado mañana, 29 Enero, Miércoles

    Tiempo Temperatura Precipitaciones Viento Presión Humedad
    00:00 +16°C° 0 mm 0 mps 732 mmHg 86%
    01:00 +16°C° 0 mm 0 mps 732 mmHg 87%
    02:00 +16°C° 0.1 mm 0 mps 732 mmHg 86%
    03:00 +15°C° 0.1 mm 0 mps 732 mmHg 86%
    04:00 +15°C° 0.1 mm 0 mps 732 mmHg 85%
    05:00 +17°C° 0.1 mm 0 mps 732 mmHg 78%
    06:00 +20°C° 0.1 mm 1 mps 733 mmHg 70%
    07:00 +22°C° 0.1 mm 1 mps 733 mmHg 62%
    08:00 +25°C° 0 mm 1 mps 733 mmHg 53%
    09:00 +27°C° 0 mm 2 mps 733 mmHg 45%
    10:00 +30°C° 0 mm 2 mps 734 mmHg 37%
    11:00 +31°C° 0 mm 3 mps 734 mmHg 33%
    12:00 +34°C° 0 mm 3 mps 734 mmHg 29%
    13:00 +35°C° 0 mm 3 mps 734 mmHg 25%
    14:00 +35°C° 0 mm 4 mps 733 mmHg 26%
    15:00 +34°C° 0 mm 5 mps 733 mmHg 27%
    16:00 +34°C° 0 mm 5 mps 733 mmHg 28%
    17:00 +30°C° 0.1 mm 4 mps 734 mmHg 35%
    18:00 +27°C° 0.1 mm 3 mps 734 mmHg 42%
    19:00 +24°C° 0.1 mm 2 mps 734 mmHg 49%
    20:00 +23°C° 0 mm 1 mps 734 mmHg 55%
    21:00 +21°C° 0 mm 1 mps 734 mmHg 61%
    22:00 +17°C° 0 mm 0 mps 734 mmHg 66%
    23:00 +16°C° 0 mm 0 mps 734 mmHg 68%

    30 Enero, Jueves

    Tiempo Temperatura Precipitaciones Viento Presión Humedad
    00:00 +16°C° 0 mm 0 mps 734 mmHg 70%
    01:00 +15°C° 0 mm 0 mps 733 mmHg 72%
    02:00 +15°C° 0 mm 0 mps 733 mmHg 71%
    03:00 +15°C° 0 mm 0 mps 733 mmHg 71%
    04:00 +15°C° 0 mm 0 mps 733 mmHg 70%
    05:00 +17°C° 0 mm 0 mps 733 mmHg 61%
    06:00 +20°C° 0 mm 0 mps 733 mmHg 52%
    07:00 +22°C° 0 mm 0 mps 734 mmHg 42%
    08:00 +27°C° 0 mm 1 mps 734 mmHg 36%
    09:00 +30°C° 0 mm 2 mps 734 mmHg 30%
    10:00 +33°C° 0 mm 3 mps 734 mmHg 24%
    11:00 +35°C° 0 mm 3 mps 733 mmHg 21%
    12:00 +37°C° 0 mm 3 mps 733 mmHg 17%
    13:00 +38°C° 0 mm 3 mps 733 mmHg 14%
    14:00 +38°C° 0 mm 4 mps 733 mmHg 15%
    15:00 +39°C° 0 mm 5 mps 733 mmHg 15%
    16:00 +39°C° 0 mm 6 mps 733 mmHg 15%
    17:00 +34°C° 0 mm 4 mps 733 mmHg 22%
    18:00 +29°C° 0 mm 3 mps 733 mmHg 28%
    19:00 +25°C° 0 mm 2 mps 733 mmHg 34%
    20:00 +23°C° 0 mm 1 mps 733 mmHg 39%
    21:00 +21°C° 0 mm 1 mps 733 mmHg 44%
    22:00 +17°C° 0 mm 0 mps 734 mmHg 49%
    23:00 +17°C° 0 mm 0 mps 733 mmHg 51%

    31 Enero, Viernes

    Tiempo Temperatura Precipitaciones Viento Presión Humedad
    00:00 +16°C° 0 mm 0 mps 733 mmHg 53%
    01:00 +16°C° 0 mm 0 mps 733 mmHg 55%
    02:00 +16°C° 0 mm 0 mps 733 mmHg 55%
    03:00 +15°C° 0 mm 0 mps 733 mmHg 56%
    04:00 +15°C° 0 mm 0 mps 733 mmHg 56%
    05:00 +18°C° 0 mm 0 mps 733 mmHg 48%
    06:00 +20°C° 0 mm 0 mps 733 mmHg 40%
    07:00 +23°C° 0 mm 0 mps 734 mmHg 32%
    08:00 +28°C° 0 mm 1 mps 734 mmHg 28%
    09:00 +30°C° 0 mm 2 mps 734 mmHg 23%
    10:00 +34°C° 0 mm 2 mps 734 mmHg 19%
    11:00 +35°C° 0 mm 3 mps 734 mmHg 18%
    12:00 +37°C° 0 mm 3 mps 734 mmHg 16%
    13:00 +38°C° 0 mm 4 mps 733 mmHg 14%
    14:00 +37°C° 0 mm 4 mps 733 mmHg 15%
    15:00 +37°C° 0 mm 5 mps 733 mmHg 17%
    16:00 +36°C° 0 mm 5 mps 733 mmHg 18%
    17:00 +33°C° 0 mm 4 mps 733 mmHg 23%
    18:00 +28°C° 0 mm 3 mps 733 mmHg 29%
    19:00 +25°C° 0 mm 1 mps 733 mmHg 34%
    20:00 +23°C° 0 mm 1 mps 733 mmHg 40%
    21:00 +21°C° 0 mm 1 mps 733 mmHg 45%
    22:00 +17°C° 0 mm 0 mps 733 mmHg 51%
    23:00 +17°C° 0 mm 0 mps 733 mmHg 54%

    1 Febrero, Sábado

    Tiempo Temperatura Precipitaciones Viento Presión Humedad
    00:00 +16°C° 0 mm 0 mps 732 mmHg 58%
    01:00 +15°C° 0 mm 0 mps 732 mmHg 61%
    02:00 +15°C° 0 mm 0 mps 732 mmHg 62%
    03:00 +15°C° 0 mm 0 mps 732 mmHg 62%
    04:00 +14°C° 0 mm 0 mps 732 mmHg 63%
    05:00 +17°C° 0 mm 0 mps 732 mmHg 56%
    06:00 +21°C° 0 mm 1 mps 732 mmHg 49%
    07:00 +23°C° 0 mm 1 mps 732 mmHg 41%
    08:00 +26°C° 0 mm 2 mps 732 mmHg 36%
    09:00 +28°C° 0 mm 2 mps 732 mmHg 31%
    10:00 +30°C° 0 mm 3 mps 732 mmHg 25%
    11:00 +33°C° 0 mm 3 mps 732 mmHg 24%
    12:00 +34°C° 0 mm 4 mps 732 mmHg 22%
    13:00 +35°C° 0 mm 4 mps 732 mmHg 20%
    14:00 +35°C° 0 mm 5 mps 732 mmHg 21%
    15:00 +34°C° 0 mm 5 mps 732 mmHg 22%
    16:00 +34°C° 0 mm 5 mps 732 mmHg 23%
    17:00 +29°C° 0 mm 4 mps 732 mmHg 34%
    18:00 +26°C° 0 mm 3 mps 732 mmHg 44%
    19:00 +21°C° 0 mm 2 mps 733 mmHg 55%
    20:00 +20°C° 0 mm 2 mps 733 mmHg 64%
    21:00 +19°C° 0 mm 1 mps 733 mmHg 74%
    22:00 +15°C° 0 mm 0 mps 734 mmHg 83%
    23:00 +15°C° 0 mm 0 mps 733 mmHg 84%
    Mostrar más